EW7762 Weather Reports


Display with metric or nautical units.
time (UTC)temp
F
wind
direction
speed
MPH
gust
MPH
rain 1hr
in
rain 24hr
in
rain mn
in
humidity
%
barometer
mb
20260504231521 64 295 4.0 7.0 0.00 0.00 0.00 38 1007.3
20260504231021 64 70 4.0 13.0 0.00 0.00 0.00 36 1007.5
20260504230521 64 330 6.0 13.0 0.00 0.00 0.00 36 1007.1
20260504230021 64 335 5.0 7.0 0.00 0.00 0.00 38 1007.5
20260504225521 65 345 6.0 6.0 0.00 0.00 0.00 37 1007.2
20260504225021 65 317 3.0 5.0 0.00 0.00 0.00 39 1007.1
20260504224509 66 295 5.0 5.0 0.00 0.00 0.00 37 1007.0
20260504223957 66 295 5.0 8.0 0.00 0.00 0.00 37 1007.2
20260504222957 67 335 6.0 9.0 0.00 0.00 0.00 35 1007.2
20260504222445 66 314 2.0 9.0 0.00 0.00 0.00 37 1007.0
20260504221944 66 16 4.0 5.0 0.00 0.00 0.00 39 1007.1
20260504221436 64 312 2.0 3.0 0.00 0.00 0.00 39 1007.2
20260504220934 64 312 2.0 3.0 0.00 0.00 0.00 39 1007.3
20260504215434 63 291 3.0 5.0 0.00 0.00 0.00 41 1007.9
20260504214934 63 337 4.0 4.0 0.00 0.00 0.00 42 1007.8
20260504214435 63 313 0.0 2.0 0.00 0.00 0.00 39 1008.2
20260504213933 63 313 0.0 2.0 0.00 0.00 0.00 39 1007.8
20260504213436 63 163 1.0 4.0 0.00 0.00 0.00 40 1007.5
20260504212441 63 349 3.0 9.0 0.00 0.00 0.00 39 1007.5
20260504211934 63 335 8.0 21.0 0.00 0.00 0.00 41 1007.8
20260504211435 63 322 8.0 21.0 0.00 0.00 0.00 40 1007.7
20260504210435 64 334 10.0 19.0 0.00 0.00 0.00 38 1007.6
20260504205934 64 338 7.0 18.0 0.00 0.00 0.00 37 1007.6
20260504205435 64 320 13.0 18.0 0.00 0.00 0.00 38 1007.7
20260504204934 64 327 13.0 19.0 0.00 0.00 0.00 38 1007.7
20260504204435 64 349 11.0 20.0 0.00 0.00 0.00 39 1007.3
20260504203934 64 346 8.0 21.0 0.00 0.00 0.00 38 1007.2
20260504203435 64 335 14.0 21.0 0.00 0.00 0.00 38 1007.8
20260504202934 63 336 11.0 19.0 0.00 0.00 0.00 40 1007.6
20260504200435 63 323 12.0 21.0 0.00 0.00 0.00 38 1008.4
20260504195933 62 5 10.0 25.0 0.00 0.00 0.00 42 1008.6
20260504195436 62 336 10.0 25.0 0.00 0.00 0.00 48 1008.3
20260504194934 62 330 7.0 19.0 0.00 0.00 0.00 46 1008.3
20260504194430 62 358 6.0 19.0 0.00 0.00 0.00 45 1007.7
20260504193423 61 332 13.0 33.0 0.00 0.00 0.00 43 1007.7
20260504192927 60 350 15.0 33.0 0.00 0.00 0.00 44 1007.9
20260504192423 64 338 20.0 26.0 0.00 0.00 0.00 43 1007.1
20260504191909 67 336 15.0 25.0 0.00 0.00 0.00 29 1007.1
20260504191414 67 340 10.0 23.0 0.00 0.00 0.00 29 1007.0
20260504190409 68 333 18.0 22.0 0.00 0.00 0.00 29 1006.8
20260504185409 69 328 15.0 21.0 0.00 0.00 0.00 27 1006.9
20260504184910 70 350 5.0 11.0 0.00 0.00 0.00 26 1006.5
20260504184409 70 29 7.0 12.0 0.00 0.00 0.00 24 1006.6
20260504183908 70 0 6.0 13.0 0.00 0.00 0.00 26 1006.3
20260504183408 71 345 10.0 18.0 0.00 0.00 0.00 26 1006.6
20260504182909 70 344 5.0 18.0 0.00 0.00 0.00 27 1006.4
20260504182409 71 329 9.0 23.0 0.00 0.00 0.00 27 1006.6
20260504181909 71 330 8.0 24.0 0.00 0.00 0.00 27 1006.8
20260504181408 72 323 16.0 24.0 0.00 0.00 0.00 26 1006.3
20260504180409 73 338 10.0 22.0 0.00 0.00 0.00 24 1006.4
20260504174909 74 329 15.0 22.0 0.00 0.00 0.00 25 1006.4
20260504173908 74 325 3.0 10.0 0.00 0.00 0.00 28 1006.5
20260504173409 73 313 3.0 11.0 0.00 0.00 0.00 27 1006.8
20260504172908 74 254 9.0 11.0 0.00 0.00 0.00 23 1006.5
20260504172408 74 271 5.0 9.0 0.00 0.00 0.00 25 1006.6
20260504171857 73 273 3.0 9.0 0.00 0.00 0.00 25 1007.0
20260504171357 73 272 4.0 7.0 0.00 0.00 0.00 24 1007.0
20260504170857 72 225 1.0 7.0 0.00 0.00 0.00 24 1007.0
20260504160357 67 262 5.0 9.0 0.00 0.00 0.00 31 1007.2
20260504150845 60 282 2.0 6.0 0.00 0.00 0.00 37 1007.8
20260504150344 59 294 2.0 5.0 0.00 0.00 0.00 37 1007.6
20260504140845 51 321 3.0 8.0 0.00 0.00 0.00 51 1008.2
20260504140345 51 332 4.0 8.0 0.00 0.00 0.00 50 1007.7
20260504130355 46 349 0.0 5.0 0.00 0.00 0.00 58 1007.8
20260504110344 41 329 2.0 3.0 0.00 0.00 0.00 59 1008.3
20260504100344 43 327 5.0 7.0 0.00 0.00 0.00 54 1008.6
20260504081844 45 347 4.0 6.0 0.00 0.00 0.00 53 1009.3
20260504081345 45 330 6.0 6.0 0.00 0.00 0.00 52 1009.2
20260504080845 45 340 4.0 5.0 0.00 0.00 0.00 53 1009.4
20260504080344 45 13 3.0 5.0 0.00 0.00 0.00 53 1009.5
20260504070334 46 342 3.0 6.0 0.00 0.00 0.00 52 1010.2
20260504045834 55 336 9.0 11.0 0.00 0.00 0.00 42 1010.0
20260504044834 54 311 4.0 8.0 0.00 0.00 0.00 41 1010.0
20260504044333 56 344 4.0 8.0 0.00 0.00 0.00 40 1010.0
20260504043833 56 11 4.0 6.0 0.00 0.00 0.00 39 1009.8
20260504043334 57 358 2.0 7.0 0.00 0.00 0.00 39 1009.8
20260504042834 57 332 0.0 9.0 0.00 0.00 0.00 38 1010.0
20260504042333 58 343 4.0 11.0 0.00 0.00 0.00 38 1010.1
20260504041834 59 25 9.0 15.0 0.00 0.00 0.00 37 1009.9
20260504041333 59 10 7.0 17.0 0.00 0.00 0.00 36 1010.2
20260504040334 60 311 5.0 18.0 0.00 0.00 0.00 35 1010.0
20260504035834 60 35 15.0 18.0 0.00 0.00 0.00 35 1009.9
20260504035333 60 19 6.0 16.0 0.00 0.00 0.00 34 1010.2
20260504034838 61 312 5.0 13.0 0.00 0.00 0.00 34 1010.1
20260504034334 61 30 6.0 13.0 0.00 0.00 0.00 33 1010.1
20260504033839 62 9 5.0 15.0 0.00 0.00 0.00 33 1010.2
20260504033334 62 37 6.0 15.0 0.00 0.00 0.00 32 1010.2
20260504032834 62 55 4.0 17.0 0.00 0.00 0.00 30 1009.9
20260504032334 63 20 6.0 17.0 0.00 0.00 0.00 29 1010.0
20260504031833 64 31 5.0 12.0 0.00 0.00 0.00 27 1010.0
20260504031334 64 13 5.0 11.0 0.00 0.00 0.00 27 1009.7
20260504030839 63 350 4.0 11.0 0.00 0.00 0.00 30 1009.9
20260504030335 62 18 6.0 8.0 0.00 0.00 0.00 32 1009.8
20260504025834 63 343 4.0 4.0 0.00 0.00 0.00 31 1009.9
20260504025334 63 350 1.0 2.0 0.00 0.00 0.00 30 1009.3
20260504024833 64 325 2.0 3.0 0.00 0.00 0.00 31 1009.3
20260504024333 64 342 2.0 3.0 0.00 0.00 0.00 31 1009.3
20260504023834 64 323 0.0 2.0 0.00 0.00 0.00 29 1009.3
20260504023334 64 235 0.0 3.0 0.00 0.00 0.00 29 1009.1
20260504022833 65 148 0.0 3.0 0.00 0.00 0.00 29 1009.2
20260504021834 66 109 0.0 4.0 0.00 0.00 0.00 28 1009.3
20260504021335 66 35 2.0 4.0 0.00 0.00 0.00 28 1009.1
20260504020834 66 122 1.0 3.0 0.00 0.00 0.00 28 1009.0
20260504020334 66 162 2.0 3.0 0.00 0.00 0.00 28 1009.1
20260504015334 66 156 3.0 5.0 0.00 0.00 0.00 29 1009.1
20260504014834 67 178 4.0 4.0 0.00 0.00 0.00 27 1009.1
20260504014334 67 313 1.0 4.0 0.00 0.00 0.00 27 1009.3
20260504013834 67 210 0.0 4.0 0.00 0.00 0.00 28 1009.2
20260504012833 67 336 0.0 2.0 0.00 0.00 0.00 27 1009.1
20260504012333 68 223 0.0 2.0 0.00 0.00 0.00 27 1009.2
20260504011834 68 284 0.0 2.0 0.00 0.00 0.00 26 1009.0
20260504010823 69 104 0.0 4.0 0.00 0.00 0.00 25 1009.1
20260504005822 69 153 3.0 6.0 0.00 0.00 0.00 25 1009.1
20260504005321 69 130 2.0 5.0 0.00 0.00 0.00 25 1009.4
20260504004322 69 155 2.0 4.0 0.00 0.00 0.00 25 1009.3
20260504003822 69 84 0.0 2.0 0.00 0.00 0.00 26 1009.4
20260504003321 70 315 0.0 3.0 0.00 0.00 0.00 24 1009.5
20260504002821 70 186 0.0 4.0 0.00 0.00 0.00 24 1009.3
20260504002322 70 40 0.0 5.0 0.00 0.00 0.00 24 1009.5
20260504001822 70 55 1.0 7.0 0.00 0.00 0.00 24 1009.5
20260504001321 70 34 3.0 7.0 0.00 0.00 0.00 23 1009.7
20260504000322 70 44 4.0 4.0 0.00 0.00 0.00 23 1009.5
20260503235826 71 29 0.0 8.0 0.00 0.00 0.00 24 1009.5
20260503235322 71 324 2.0 9.0 0.00 0.00 0.00 24 1009.8
20260503234822 71 317 4.0 12.0 0.00 0.00 0.00 22 1009.7
20260503234322 71 345 6.0 12.0 0.00 0.00 0.00 22 1009.7
20260503233322 72 345 4.0 13.0 0.00 0.00 0.00 22 1009.7
20260503232822 73 302 7.0 8.0 0.00 0.00 0.00 22 1009.5
20260503232322 73 282 3.0 6.0 0.00 0.00 0.00 20 1009.4